Terug naar catalogus

STARLINK-32387

ActiefCommunicatieVLEO
NORAD 61704·PAYLOAD·🇺🇸 United States

Gelanceerd Oct 30, 2024 vanaf Vandenberg Space Force Base

Loading…

Volgende Passages (komende 24 uur)

TLE

VersSource: CelesTrak SupGP

Epoch: Sep 14, 2026, 22:40 UTC

1 61704C 24195T   26257.94493056 -.00008557  00000+0 -25283-3 0  2577
2 61704  53.1592 351.6363 0001142  82.1861 250.4267 15.34394052    19

Volg STARLINK-32387 in realtime met AllMySat

Download on the App Store